星链-37683(STARLINK-37683)

导读

STARLINK-37683(NORAD编号69367)是美国太空探索技术公司(SpaceX)星链低轨通信星座的成员卫星,属于星链V2 mini批次,于2025年1月27日随猎鹰9号火箭发射入轨,初始运行轨道周期约94.3分钟,核心功能是提供全球低轨宽带互联网接入服务。该卫星是星链千颗量级组网的组成部分,目前在轨正常运行,按照2026年星链降轨规划,后续将逐步调整至480公里高度轨道,以降低故障后产生空间碎片的风险。

基本信息
目录编号:
69367
目录名称:
STARLINK-37683
国际标识:
2026-123Q
轨道中心:
EARTH
卫星名称:
星链-37683
卫星全名:
星链-37683(STARLINK-37683)
卫星状态:
在轨 (已飞行103 天)
发射日期:
2026-06-04 UTC
国别 :
美国 (US)
星等 :
--
该卫星已列入 空间交会检测服务 Space Conjunction Data Service (SCDS) ,当前飞行风险评估等级: 高风险
轨道信息
数据来源 国际轨道数据
星历时间: 2026-09-15T11:20:33+0800
10小时前
查看轨道信息
半长轴: 6840.809km
偏心率: 0.0002233
轨道倾角: 53.160°
近地点辐角 223.072°
升交点赤经 167.027°
平近点角 137.011°
近地点: 461.144km
远地点: 464.2km
周期: 93.847分钟
每日圈数: 15.344107
详细信息
固有亮度:
5
最大亮度:
2.5
卫星平台:
Starlink V1.0
覆盖范围:
全球
运营商:
太空探索技术公司
运营商所在国:
美国
制造商(研发单位):
太空探索技术公司
制造商所在国:
美国
使用方式:
暂无
卫星简介
Starlink 计划是 SpaceX 推出的全球卫星互联网项目,通过发射低轨道卫星,为全球尤其是偏远地区提供高速、低延迟的互联网服务。自 2019 年起,Starlink 已部署数千颗卫星,旨在缩小全球数字鸿沟,推动互联网普及。该项目还为军事、航空等行业提供通信支持,带来广泛经济效益。
2D轨道图
3D轨道图
轨道高度分析图
轨道倾角分析图
轨道综合分析图
查看轨道综合分析图
交会数据列表
事件ID 空间交会对象 最接近时刻(TCA) 交会距离 交会风险概率(CRP) 交会风险指数(CRI) 操作
CDM_260917-071505-943906-936721
2026-09-17T
07:15:07+0000
0.247 km
中距离
4.255471E-4 高风险 0.88
CDM_260917-054106-092006-936721
2026-09-17T
05:41:41+0000
0.368 km
远距离
2.074948E-4 高风险 0.81
CDM_260915-200905-469006-936724
OBJECT J (54690)
2026-09-15T
20:09:52+0000
0.618 km
远距离
1.029705E-4 高风险 0.75
CDM_260917-053805-362706-936721
2026-09-17T
05:38:51+0000
0.782 km
远距离
3.790447E-5 中风险 0.67
CDM_260916-175505-362706-936722
2026-09-16T
17:55:25+0000
0.941 km
远距离
2.049229E-5 中风险 0.61
CDM_260917-014605-943906-936721
2026-09-17T
01:46:51+0000
1.134 km
极远距离
8.193823E-6 低风险 0.53
CDM_260917-080406-058406-936722
2026-09-17T
08:04:01+0000
1.300 km
极远距离
3.35834E-6 低风险 0.46
CDM_260917-001306-092006-936721
2026-09-17T
00:13:24+0000
1.526 km
极远距离
2.916627E-6 低风险 0.44
CDM_260916-223906-092006-936721
2026-09-16T
22:39:36+0000
1.555 km
极远距离
2.754711E-6 低风险 0.44
CDM_260916-192905-362706-936721
2026-09-16T
19:29:12+0000
1.821 km
极远距离
2.361297E-6 低风险 0.42
与全量物体交会距离演化趋势 订阅飞行安全评估服务
与全量物体交会风险概率演化趋势 订阅飞行安全评估服务